This is the latest recevied weather packets stored in our database for station/object IT9ITI-10. If no packets are shown the sender has not sent any weather packets the latest 10 day(s).
| Time | Temp. | Humidity | Pressure | Rain* | Wind** | Luminosity | Snow |
|---|---|---|---|---|---|---|---|
| 1778019848 | 23.33° C | 47% | 936.5 hPa | - | - | - | - |
| 1778016248 | 23.33° C | 47% | 936.9 hPa | - | - | - | - |
| 1778012648 | 23.33° C | 47% | 937.2 hPa | - | - | - | - |
| 1778009048 | 23.89° C | 46% | 936.8 hPa | - | - | - | - |
| 1778005448 | 23.89° C | 45% | 936.6 hPa | - | - | - | - |
| 1778001848 | 23.89° C | 45% | 936.5 hPa | - | - | - | - |
| 1777998249 | 24.44° C | 44% | 936.4 hPa | - | - | - | - |
| 1777994649 | 23.89° C | 47% | 936.1 hPa | - | - | - | - |
| 1777991049 | 23.89° C | 47% | 936.2 hPa | - | - | - | - |
| 1777987449 | 23.89° C | 47% | 936.7 hPa | - | - | - | - |
| 1777983848 | 23.89° C | 47% | 937.2 hPa | - | - | - | - |
| 1777980249 | 23.89° C | 46% | 937.4 hPa | - | - | - | - |
| 1777976649 | 23.89° C | 47% | 937.7 hPa | - | - | - | - |
| 1777973049 | 23.89° C | 46% | 937.8 hPa | - | - | - | - |
| 1777969449 | 23.89° C | 47% | 938 hPa | - | - | - | - |
| 1777965849 | 23.33° C | 47% | 937.9 hPa | - | - | - | - |
| 1777962249 | 23.33° C | 47% | 938.1 hPa | - | - | - | - |
| 1777958648 | 23.89° C | 46% | 937.6 hPa | - | - | - | - |
| 1777958033 | 22.22° C | 48% | 937.7 hPa | - | - | - | - |
| 1777955100 | 22.78° C | 47% | 937.4 hPa | - | - | - | - |
| 1777951500 | 22.78° C | 47% | 937.1 hPa | - | - | - | - |
| 1777947900 | 22.78° C | 47% | 937.4 hPa | - | - | - | - |
| 1777944300 | 22.78° C | 47% | 937.7 hPa | - | - | - | - |
| 1777940700 | 22.78° C | 47% | 938.1 hPa | - | - | - | - |
| 1777937100 | 22.78° C | 47% | 938.6 hPa | - | - | - | - |
* Rain since midnight (hover to see other rain measurements)
** Current wind speed in m/s (hover to see current wind gust speed)